Content
SEND FEEDBACK

Daily
Averages
Monthly
Summary
Canada

VANCOUVER, BRITISH COLUMBIA


Home > North America > Canada > British Columbia
Elevation: 7 feet     Latitude: 49 11N     Longitude: 123 10W

WEATHER
 
SELECT A DAY
Number of Records: 254,921;   Date Range: 5/15/97 - 12/19/14
 
SHARE

PRINT THIS DATA

[ ← Previous Day ]
WEATHER ALMANAC - MARCH 14, 2013
[ Next Day → ]
[ °C ]   °F
Weather ElementAverageHighLow
Temperature49.7 °F53.6 °F (12:35 am)48.2 °F (7:55 am)
Dewpoint46.6 °F48.2 °F (12:35 am)44.6 °F (11:35 am)
Humidity89 %100 % (7:55 am)72 % (2:35 pm)
Barometer30.01 in30.10 in (11:55 pm)29.97 in (7:15 am)
Wind Speed5 mph12.7 mph (4:15 pm)
Wind Gust16.1 mph (11:35 am)
Weather ElementAverage
Visibility8.8 mi
Wind DirectionSE (133.9 °)

Weather ElementTotal
Precipitation0.02 in
Heating Degree Days14.1 (Base 65)
Growing Degree Days0.9 (Base 50)
Averaged from 70 records on March 14, 2013
WEATHER CONDITIONS BREAKOUT
WIND DIRECTION BREAKOUT
WEATHER BY HOUR - MARCH 14, 2013
[ °C ]   °F
Local TimeTemperatureDewpointHumidityBarometerVisibilityWind DirectionWind SpeedGust SpeedPrecipitationEventsConditions
12:35 AM53.6 °F48.2 °F82 %30.02 in10.0 miSouth (170°)8.1 mphClear
1:15 AM53.6 °F46.4 °F77 %30.02 in10.0 miSouth (170°)5.8 mphClear
1:35 AM50.0 °F48.2 °F94 %30.03 in10.0 miSouth (190°)5.8 mphClear
1:55 AM51.8 °F48.2 °F88 %30.02 in10.0 miSouth (180°)5.8 mphClear
2:15 AM51.8 °F48.2 °F88 %30.02 in10.0 miSouth (190°)6.9 mphClear
2:35 AM51.8 °F48.2 °F88 %30.02 in10.0 miSouth (170°)6.9 mphClear
2:55 AM51.8 °F48.2 °F88 %30.01 in10.0 miSouth (180°)5.8 mphClear
3:15 AM51.8 °F48.2 °F88 %30.01 in10.0 miCalmClear
3:35 AM53.6 °F48.2 °F82 %30.00 in10.0 miSSE (160°)3.5 mphClear
3:55 AM51.8 °F48.2 °F88 %30.00 in10.0 miSSE (160°)3.5 mphClear
4:15 AM50.0 °F48.2 °F94 %29.99 in10.0 miNorthClear
4:35 AM50.0 °F48.2 °F94 %30.00 in10.0 miCalmScattered Clouds
4:55 AM50.0 °F48.2 °F94 %30.00 in10.0 miCalmPartly Cloudy
5:15 AM50.0 °F48.2 °F94 %30.00 in10.0 miSouth (190°)5.8 mphClear
5:35 AM50.0 °F48.2 °F94 %30.00 in10.0 miSouth (180°)4.6 mphPartly Cloudy
5:55 AM50.0 °F46.4 °F87 %29.99 in10.0 miSouth (190°)8.1 mphClear
6:15 AM50.0 °F46.4 °F87 %29.98 in10.0 miCalmClear
6:35 AM50.0 °F46.4 °F87 %30.01 in10.0 miSW (230°)8.1 mphClear
6:55 AM51.8 °F46.4 °F82 %29.99 in10.0 miCalmClear
7:15 AM50.0 °F46.4 °F87 %29.97 in10.0 miCalmClear
7:35 AM50.0 °F46.4 °F87 %30.00 in10.0 miCalmScattered Clouds
7:55 AM48.2 °F48.2 °F100 %29.99 in10.0 miCalmMostly Cloudy
8:15 AM50.0 °F46.4 °F87 %29.99 in10.0 miCalmMostly Cloudy
8:35 AM48.2 °F46.4 °F93 %30.00 in10.0 miCalmMostly Cloudy
8:55 AM48.2 °F46.4 °F93 %29.99 in10.0 miCalmOvercast
9:15 AM48.2 °F46.4 °F93 %30.01 in10.0 miCalmMostly Cloudy
9:35 AM48.2 °F48.2 °F100 %30.01 in10.0 miCalmOvercast
9:55 AM50.0 °F48.2 °F94 %30.01 in10.0 miSSE (160°)4.6 mphOvercast
10:15 AM50.0 °F46.4 °F87 %30.02 in10.0 miSouth (190°)8.1 mphMostly Cloudy
10:35 AM50.0 °F46.4 °F87 %30.01 in10.0 miSSW (200°)8.1 mphMostly Cloudy
10:55 AM50.0 °F46.4 °F87 %30.02 in10.0 miSSW (210°)9.2 mphMostly Cloudy
11:15 AM50.0 °F46.4 °F87 %30.01 in10.0 miSSW (210°)4.6 mphPartly Cloudy
11:35 AM50.0 °F44.6 °F82 %30.01 in10.0 miSouth (190°)9.2 mph16.1 mphClear
11:55 AM50.0 °F44.6 °F82 %30.01 in10.0 miSouth (190°)9.2 mphClear
12:15 PM50.0 °F44.6 °F82 %30.01 in10.0 miSouth (170°)6.9 mphClear
12:35 PM50.0 °F44.6 °F82 %30.01 in10.0 miSouth (190°)10.4 mphClear
12:55 PM50.0 °F44.6 °F82 %30.01 in10.0 miSouth (180°)6.9 mphPartly Cloudy
1:15 PM50.0 °F46.4 °F87 %30.00 in10.0 miSouth (180°)4.6 mphPartly Cloudy
1:35 PM51.8 °F46.4 °F82 %30.00 in10.0 miSouth (190°)6.9 mphClear
1:55 PM51.8 °F46.4 °F82 %30.00 in10.0 miSouth (180°)5.8 mphClear
2:15 PM53.6 °F46.4 °F77 %29.99 in10.0 miSouth (170°)5.8 mphPartly Cloudy
2:35 PM53.6 °F44.6 °F72 %29.99 in10.0 miSouth (170°)4.6 mphScattered Clouds
2:55 PM51.8 °F44.6 °F76 %29.99 in10.0 miSouth (170°)6.9 mphPartly Cloudy
3:15 PM50.0 °F44.6 °F82 %29.99 in5.0 miSouth (180°)8.1 mphRainLight Rain
3:35 PM50.0 °F44.6 °F82 %30.00 in3.0 miSouth (180°)8.1 mphRainLight Rain
3:55 PM48.2 °F46.4 °F93 %29.99 in3.0 miSouth (180°)4.6 mphRainRain
4:15 PM48.2 °F46.4 °F93 %30.00 in3.0 miSSW (210°)12.7 mphRainLight Rain
4:35 PM48.2 °F46.4 °F93 %30.01 in2.5 miSouth (190°)8.1 mph0.01 inRainRain
4:55 PM48.2 °F46.4 °F93 %30.01 in3.0 miSouth (170°)4.6 mph0.01 inRainLight Rain
5:15 PM48.2 °F46.4 °F93 %30.00 in4.0 miSouth (180°)6.9 mphRainLight Rain
5:35 PM48.2 °F46.4 °F93 %30.00 in4.0 miSouth (180°)6.9 mphRainLight Rain
5:55 PM48.2 °F46.4 °F93 %30.01 in5.0 miSouth (180°)4.6 mphRainLight Rain
6:15 PM48.2 °F46.4 °F93 %30.01 in6.0 miSouth (180°)3.5 mphRainLight Rain
6:35 PM48.2 °F46.4 °F93 %30.02 in4.0 miNorthRainLight Rain
6:55 PM48.2 °F46.4 °F93 %30.02 in4.0 miCalmRainLight Rain
7:15 PM48.2 °F46.4 °F93 %30.01 in5.0 miCalmRainLight Rain
7:35 PM48.2 °F46.4 °F93 %30.02 in9.0 miCalmRainLight Rain
7:55 PM48.2 °F46.4 °F93 %30.02 in9.0 miCalmRainLight Rain
8:15 PM48.2 °F46.4 °F93 %30.03 in10.0 miSouth (180°)6.9 mphScattered Clouds
8:35 PM48.2 °F46.4 °F93 %30.04 in10.0 miSouth (190°)5.8 mphMostly Cloudy
8:55 PM48.2 °F46.4 °F93 %30.04 in10.0 miSouth (190°)4.6 mphPartly Cloudy
9:15 PM48.2 °F46.4 °F93 %30.05 in10.0 miSouth (190°)6.9 mphMostly Cloudy
9:35 PM48.2 °F46.4 °F93 %30.05 in10.0 miSouth (170°)5.8 mphMostly Cloudy
9:55 PM48.2 °F46.4 °F93 %30.05 in7.0 miSouth (180°)6.9 mphRainLight Rain
10:15 PM48.2 °F46.4 °F93 %30.06 in10.0 miSouth (180°)6.9 mphRainLight Rain
10:35 PM48.2 °F46.4 °F93 %30.07 in10.0 miSouth (180°)5.8 mphOvercast
10:55 PM48.2 °F46.4 °F93 %30.07 in10.0 miSouth (190°)8.1 mphOvercast
11:15 PM48.2 °F46.4 °F93 %30.08 in10.0 miSSW (200°)8.1 mphOvercast
11:35 PM48.2 °F46.4 °F93 %30.09 in10.0 miSouth (180°)8.1 mphOvercast
11:55 PM48.2 °F46.4 °F93 %30.10 in7.0 miSSW (200°)10.4 mphRainLight Rain
Hourly data recorded from CZBB, located miles away from Vancouver, British Columbia







STORIES FROM OUR PARTNERS